EW3517 Weather Reports


Display with metric or nautical units.
time (UTC)temp
F
wind
direction
speed
MPH
gust
MPH
rain 1hr
in
rain 24hr
in
rain mn
in
humidity
%
barometer
mb
20260508003058 76 244 0.0 0.0 0.00 0.00 0.00 28 1010.4
20260508001600 77 219 0.0 0.0 0.00 0.00 0.00 28 1010.4
20260508000056 77 313 0.0 0.0 0.00 0.00 0.00 28 1010.4
20260507234556 78 271 0.0 0.0 0.00 0.00 0.00 29 1010.5
20260507233052 77 274 0.0 0.0 0.00 0.00 0.00 29 1010.7
20260507231552 78 241 0.0 0.0 0.00 0.00 0.00 28 1010.8
20260507230048 78 277 0.0 0.0 0.00 0.00 0.00 29 1010.9
20260507224548 79 93 0.0 0.0 0.00 0.00 0.00 29 1011.1
20260507223045 79 286 0.0 0.0 0.00 0.00 0.00 28 1011.1
20260507221542 79 338 0.0 0.0 0.00 0.00 0.00 28 1011.3
20260507220039 78 288 0.0 0.0 0.00 0.00 0.00 27 1011.4
20260507214544 78 284 0.0 0.0 0.00 0.00 0.00 28 1011.5
20260507213033 77 271 0.0 0.0 0.00 0.00 0.00 28 1011.7
20260507211537 76 224 0.0 0.0 0.00 0.00 0.00 29 1012.0
20260507210026 76 283 0.0 0.0 0.00 0.00 0.00 29 1012.3
20260507204524 76 270 0.0 0.0 0.00 0.00 0.00 31 1012.5
20260507203025 75 148 0.0 0.0 0.00 0.00 0.00 35 1012.8
20260507201517 75 240 0.0 0.0 0.00 0.00 0.00 33 1013.2
20260507200013 74 293 0.0 0.0 0.00 0.00 0.00 32 1013.5
20260507194512 74 284 0.0 0.0 0.00 0.00 0.00 32 1013.7
20260507193009 73 252 0.0 0.0 0.00 0.00 0.00 33 1014.0
20260507191505 73 275 0.0 0.0 0.00 0.00 0.00 36 1014.4
20260507190002 72 236 0.0 0.0 0.00 0.00 0.00 38 1014.5
20260507184558 71 271 0.0 0.0 0.00 0.00 0.00 38 1014.8
20260507183056 70 275 0.0 1.0 0.00 0.00 0.00 40 1015.0
20260507181552 70 263 0.0 0.0 0.00 0.00 0.00 41 1015.3
20260507180056 70 249 0.0 0.0 0.00 0.00 0.00 41 1015.5
20260507174546 69 261 0.0 0.0 0.00 0.00 0.00 45 1015.8
20260507173046 68 126 0.0 0.0 0.00 0.00 0.00 44 1016.1
20260507171548 67 273 0.0 0.0 0.00 0.00 0.00 45 1016.4
20260507170034 67 277 0.0 0.0 0.00 0.00 0.00 45 1016.7
20260507164536 66 242 0.0 0.0 0.00 0.00 0.00 46 1016.9
20260507163037 66 262 0.0 0.0 0.00 0.00 0.00 46 1017.2
20260507161539 65 275 0.0 0.0 0.00 0.00 0.00 47 1017.4
20260507160040 64 241 0.0 0.0 0.00 0.00 0.00 45 1017.3
20260507154526 64 242 0.0 0.0 0.00 0.00 0.00 46 1017.5
20260507153021 63 133 0.0 0.0 0.00 0.00 0.00 49 1017.5
20260507151520 63 315 0.0 0.0 0.00 0.00 0.00 49 1017.8
20260507150020 61 268 0.0 0.0 0.00 0.00 0.00 53 1017.9
20260507144526 60 240 0.0 0.0 0.00 0.00 0.00 53 1018.2
20260507143014 59 230 0.0 0.0 0.00 0.00 0.00 56 1018.3
20260507141515 58 263 0.0 0.0 0.00 0.00 0.00 61 1018.4
20260507140006 57 262 0.0 0.0 0.00 0.00 0.00 68 1018.6
20260507134559 54 262 0.0 0.0 0.00 0.00 0.00 69 1018.8
20260507133102 53 287 0.0 0.0 0.00 0.00 0.00 71 1018.7
20260507131556 52 271 0.0 0.0 0.00 0.00 0.00 73 1018.6
20260507130106 52 63 0.0 0.0 0.00 0.00 0.00 81 1018.6
20260507124624 49 63 0.0 0.0 0.00 0.00 0.00 86 1018.5
20260507123050 47 63 0.0 0.0 0.00 0.00 0.00 87 1018.3
20260507121550 46 63 0.0 0.0 0.00 0.00 0.00 88 1018.2
20260507120048 44 63 0.0 0.0 0.00 0.00 0.00 88 1017.9
20260507114606 44 63 0.0 0.0 0.00 0.00 0.00 87 1017.8
20260507113047 45 63 0.0 0.0 0.00 0.00 0.00 87 1017.7
20260507111545 45 63 0.0 0.0 0.00 0.00 0.00 87 1017.7
20260507110046 45 63 0.0 0.0 0.00 0.00 0.00 86 1017.7
20260507104551 45 63 0.0 0.0 0.00 0.00 0.00 86 1017.7
20260507103043 45 63 0.0 0.0 0.00 0.00 0.00 86 1017.6
20260507101543 45 63 0.0 0.0 0.00 0.00 0.00 85 1017.5
20260507100044 45 63 0.0 0.0 0.00 0.00 0.00 85 1017.4
20260507094543 45 63 0.0 0.0 0.00 0.00 0.00 85 1017.4
20260507093043 45 63 0.0 0.0 0.00 0.00 0.00 85 1017.6
20260507091543 45 63 0.0 0.0 0.00 0.00 0.00 85 1017.4
20260507090038 45 63 0.0 0.0 0.00 0.00 0.00 83 1017.3
20260507084537 45 63 0.0 0.0 0.00 0.00 0.00 83 1017.3
20260507083035 46 63 0.0 0.0 0.00 0.00 0.00 82 1017.2
20260507081533 46 63 0.0 0.0 0.00 0.00 0.00 82 1017.6
20260507080031 47 63 0.0 0.0 0.00 0.00 0.00 81 1017.3
20260507074529 47 63 0.0 0.0 0.00 0.00 0.00 81 1017.3
20260507073029 47 63 0.0 0.0 0.00 0.00 0.00 79 1017.7
20260507071526 48 63 0.0 0.0 0.00 0.00 0.00 77 1017.5
20260507070025 48 63 0.0 0.0 0.00 0.00 0.00 76 1017.4
20260507064523 48 63 0.0 0.0 0.00 0.00 0.00 74 1017.1
20260507063032 49 63 0.0 0.0 0.00 0.00 0.00 74 1017.3
20260507061516 50 63 0.0 0.0 0.00 0.00 0.00 71 1017.5
20260507060024 51 63 0.0 0.0 0.00 0.00 0.00 69 1017.9
20260507054511 52 63 0.0 0.0 0.00 0.00 0.00 67 1018.1
20260507053007 53 63 0.0 0.0 0.00 0.00 0.00 65 1018.1
20260507051505 53 63 0.0 0.0 0.00 0.00 0.00 62 1017.7
20260507044600 54 63 0.0 0.0 0.00 0.00 0.00 60 1017.8
20260507043057 55 63 0.0 0.0 0.00 0.00 0.00 59 1017.4
20260507041555 55 103 0.0 0.0 0.00 0.00 0.00 58 1016.6
20260507040055 55 89 0.0 0.0 0.00 0.00 0.00 59 1016.4
20260507034554 55 21 0.0 0.0 0.00 0.00 0.00 59 1016.8
20260507033056 55 21 0.0 0.0 0.00 0.00 0.00 59 1016.8
20260507031552 56 22 0.0 0.0 0.00 0.00 0.00 59 1016.6
20260507030048 56 22 0.0 0.0 0.00 0.00 0.00 58 1016.5
20260507024548 57 22 0.0 0.0 0.00 0.00 0.00 56 1016.2
20260507023048 58 22 0.0 0.0 0.00 0.00 0.00 55 1016.1
20260507021547 58 23 0.0 0.0 0.00 0.00 0.00 53 1015.9
20260507020046 59 23 0.0 0.0 0.00 0.00 0.00 52 1015.7
20260507014551 60 39 0.0 0.0 0.00 0.00 0.00 50 1015.4
20260507013051 61 22 0.0 0.0 0.00 0.00 0.00 49 1015.3
20260507011545 61 65 0.0 0.0 0.00 0.00 0.00 48 1015.2
20260507010054 62 5 0.0 0.0 0.00 0.00 0.00 47 1015.2
20260507004546 62 22 0.0 0.0 0.00 0.00 0.00 47 1015.1